Theta_e
348 350 351 352 347 351 351 350 351 360 362 352 351 349 349 348 347 347 346 344 341 340 341 343 344 344 344 343 344 344 344 344 343 343 345 345 345 345
351 352 353 351 347 351 351 351 350 351 359 352 351 351 350 349 349 348 348 347 346 343 343 343 343 344 344 345 345 345 344 344 345 345 346 346 346 346
352 353 354 352 348 351 352 351 351 350 353 351 350 352 353 352 350 350 350 349 348 346 343 344 344 344 344 344 345 345 345 345 346 346 347 347 347 346
352 350 352 352 351 350 352 352 352 352 353 350 350 352 354 355 354 354 351 350 349 349 347 347 347 346 345 345 346 346 346 346 347 347 347 346 346 347
352 349 348 352 352 351 352 351 350 351 351 350 351 354 349 355 356 356 356 352 351 351 350 347 346 346 346 346 346 346 347 347 347 345 345 345 345 346
347 347 347 350 350 353 352 352 351 351 352 351 351 350 349 353 354 354 356 354 353 354 351 351 349 347 347 346 346 347 347 346 341 338 338 337 338 339
343 344 345 345 346 347 348 350 350 353 352 351 350 350 352 354 353 351 353 350 354 354 351 346 346 347 346 346 344 341 339 336 335 334 334 333 332 333
338 338 337 335 342 345 347 347 347 349 352 353 351 351 351 352 351 350 350 350 353 349 349 346 343 344 346 344 340 339 335 335 335 335 336 337 337 337
344 338 343 343 345 346 347 347 348 350 351 354 354 352 354 355 353 352 351 351 351 350 348 347 343 345 344 340 336 334 335 335 336 336 336 336 336 336
349 346 343 343 343 342 340 342 343 343 343 345 349 351 351 352 352 352 352 351 349 347 346 347 345 344 343 337 334 331 331 331 331 332 331 331 331 332
350 347 345 342 339 338 341 341 341 341 336 336 339 341 341 345 347 345 346 345 345 342 341 342 342 339 340 337 335 333 331 329 329 328 327 328 328 330
347 347 343 345 338 337 336 335 334 334 337 334 335 336 336 336 335 339 336 335 332 333 336 335 332 335 336 334 337 334 329 326 323 322 321 322 324 327
341 343 341 338 336 332 329 332 330 328 332 333 335 336 337 338 336 336 336 335 333 333 338 334 334 334 333 332 333 331 329 326 325 319 317 319 322 328
340 339 339 337 331 330 326 324 320 322 327 329 332 334 334 335 334 335 336 335 335 336 333 332 331 330 330 329 329 330 327 326 324 321 320 314 314 318
337 339 339 334 330 329 324 321 318 322 325 327 329 331 332 333 334 335 334 334 333 331 331 332 330 330 329 326 326 328 326 324 322 321 321 321 320 320
334 335 333 331 327 329 324 319 322 325 325 325 325 328 331 333 333 331 330 329 328 329 329 330 331 328 324 323 323 324 325 323 322 321 322 321 319 318
332 334 330 330 329 327 325 323 325 328 328 329 329 330 330 330 330 329 327 325 324 325 327 328 328 326 324 326 322 322 323 322 322 322 322 321 319 318
330 330 330 330 329 327 323 323 325 324 325 327 328 327 327 327 327 326 324 322 321 322 325 324 324 322 321 321 320 321 322 321 320 322 321 320 320 319
325 327 329 329 327 325 322 323 323 323 323 323 324 325 325 325 324 324 323 321 319 319 322 324 323 322 320 320 321 316 321 320 320 320 319 319 320 321
321 325 325 325 324 322 322 321 322 323 322 320 320 321 321 321 321 320 319 319 318 318 318 320 321 320 319 320 320 321 317 323 319 319 319 318 318 318
322 323 322 322 321 321 320 319 320 322 324 323 321 320 319 319 319 319 318 318 318 318 319 318 319 319 319 319 319 320 319 316 319 319 319 317 317 317
322 321 323 323 320 319 317 317 317 319 324 325 323 321 319 318 318 318 317 317 317 317 318 318 320 319 318 318 317 316 317 317 313 315 316 317 317 317
324 324 324 323 320 319 319 318 320 321 324 324 323 321 319 318 318 317 317 317 317 317 316 317 317 319 318 317 317 316 316 318 316 314 313 312 312 311
Wind_Speed
22 21 21 18 19 14 12 10 12 7 8 15 12 21 21 21 23 23 23 25 25 26 25 25 25 25 25 24 24 23 23 23 24 24 25 27 28 29
21 19 19 18 18 16 14 9 9 9 4 10 20 18 20 18 19 22 21 22 24 25 25 25 24 23 23 23 23 24 24 24 25 26 26 26 27 28
18 20 18 17 16 16 14 13 10 10 6 7 14 13 17 18 16 18 18 18 20 23 24 25 25 25 25 25 25 25 25 25 25 24 25 25 24 25
17 20 18 18 17 13 14 11 10 8 7 8 7 13 15 16 16 17 18 19 19 20 19 22 24 25 25 25 24 24 24 23 23 22 22 23 23 21
12 14 16 15 15 14 14 12 12 11 10 9 9 11 12 13 16 15 16 19 18 16 19 20 22 24 24 24 23 22 22 21 20 21 20 19 20 20
9 12 12 13 14 12 14 14 12 12 12 8 10 11 13 15 15 17 15 16 16 11 13 13 16 18 19 20 20 18 17 17 15 14 14 15 16 16
6 2 5 8 9 13 14 15 14 13 11 13 13 13 13 10 12 13 14 14 12 12 11 8 7 8 10 12 11 13 13 12 13 13 14 16 18 20
11 6 5 4 6 14 15 16 15 16 14 13 13 13 13 13 12 14 13 12 10 11 12 9 9 8 9 8 11 10 8 8 7 8 9 8 8 8
13 13 12 11 12 11 10 9 11 13 10 11 12 13 12 12 11 12 12 13 8 7 11 11 8 10 9 9 8 7 7 6 5 5 5 5 6 6
13 13 15 16 15 12 9 6 6 5 6 7 6 6 7 9 10 10 10 8 6 6 7 9 10 10 11 6 6 7 7 6 6 7 8 9 8 8
11 12 12 12 14 13 9 7 7 7 7 9 9 9 10 11 10 9 10 11 11 11 9 11 12 10 13 11 8 7 8 7 7 8 8 8 8 6
11 11 16 13 13 11 7 7 7 8 9 6 9 10 9 9 12 10 10 12 13 9 10 11 12 9 11 12 8 5 5 6 6 6 7 7 8 9
12 12 12 15 12 10 8 6 8 7 9 9 9 10 11 11 11 10 9 10 10 10 10 9 7 10 11 4 8 11 8 5 5 2 1 2 4 5
11 12 11 13 14 11 8 10 10 10 9 11 11 12 12 13 12 9 8 7 4 1 7 9 7 9 10 11 10 10 8 7 6 5 5 6 7 7
9 10 13 12 15 12 11 9 8 9 10 11 12 12 12 10 9 9 8 8 5 4 5 7 9 6 8 10 10 6 10 8 7 7 7 6 4 4
12 7 10 13 13 10 10 10 10 10 10 12 11 10 10 9 11 11 11 9 9 8 7 8 8 6 8 8 8 9 12 10 10 9 7 6 5 4
16 14 13 14 14 12 11 11 12 10 10 9 10 10 11 12 12 11 10 9 10 9 9 9 9 8 8 5 10 10 11 11 9 9 9 8 8 7
17 15 16 16 16 14 13 12 11 13 11 11 11 12 11 11 11 11 10 10 9 10 11 13 12 10 9 10 12 11 12 12 12 11 12 13 12 10
18 18 17 17 17 16 14 13 13 13 14 15 14 10 10 13 11 12 11 10 10 11 11 13 13 13 11 8 12 17 14 15 15 14 14 15 14 14
20 18 18 18 16 15 15 15 15 13 15 14 14 15 15 13 13 14 13 13 14 12 14 15 16 16 15 11 10 13 21 13 16 15 15 14 9 3
20 18 16 17 16 16 16 16 17 18 18 18 18 17 15 15 15 15 15 14 13 14 14 16 16 15 13 9 11 10 12 22 13 13 13 14 15 15
18 19 17 15 14 13 13 13 15 17 19 19 18 18 17 16 16 16 16 15 17 17 16 15 9 13 17 15 15 14 15 13 20 19 14 13 9 13
10 16 12 8 9 10 10 12 14 16 17 17 19 18 17 17 16 15 15 16 16 16 18 16 16 14 17 18 17 17 15 14 14 16 17 19 18 17
Wind_Direction
228 234 226 219 215 227 223 233 194 203 209 202 198 209 211 216 219 218 222 225 230 230 233 238 243 247 247 248 250 254 257 260 263 267 271 272 270 269
227 221 218 214 219 223 215 210 228 231 208 220 207 185 205 209 214 216 219 220 231 232 233 237 239 240 241 244 248 251 255 258 264 269 272 273 271 270
230 215 211 208 210 212 207 208 214 219 212 264 176 177 192 200 198 205 212 217 224 233 228 231 235 238 240 242 246 250 254 260 263 265 270 272 274 271
223 217 213 209 207 207 207 213 202 222 207 196 209 181 199 201 202 204 210 216 220 223 229 232 234 236 239 243 245 250 251 254 259 264 272 269 270 275
211 205 214 215 204 211 228 210 223 223 216 220 195 196 196 202 199 203 208 218 220 224 227 231 233 236 239 244 246 249 251 256 260 266 271 274 276 276
202 206 217 221 216 214 222 230 239 224 213 212 204 192 202 202 197 203 206 210 208 209 214 220 235 238 242 243 243 244 249 251 254 263 274 280 283 285
116 310 201 226 241 247 239 235 229 232 238 215 212 208 212 205 200 213 197 204 204 210 208 200 203 225 231 231 229 235 238 246 257 269 279 284 282 275
157 134 75 37 288 259 236 234 226 224 226 230 236 228 220 221 215 224 213 204 202 210 206 202 204 208 214 203 211 220 231 242 259 274 285 294 302 302
193 186 185 199 211 218 213 219 212 222 221 232 237 233 224 219 217 221 218 223 229 176 197 207 200 203 200 230 227 217 226 236 241 253 275 293 303 310
196 193 187 187 190 198 197 190 211 212 213 229 236 233 221 199 207 208 196 185 179 188 197 218 189 205 191 197 238 222 226 229 245 263 277 285 293 301
185 193 194 191 196 194 200 207 219 228 246 225 212 211 203 190 179 181 191 205 218 211 206 235 221 217 211 224 200 236 248 254 260 265 269 271 273 278
207 206 199 195 196 198 207 222 235 244 236 232 230 228 217 204 197 207 220 221 230 215 203 219 223 208 219 226 187 231 230 249 255 261 265 261 245 235
220 209 218 209 203 209 213 234 241 236 225 224 224 216 211 207 210 211 219 237 230 230 154 198 212 210 233 187 222 222 233 219 213 177 119 183 198 202
224 219 207 211 204 206 205 222 230 213 222 216 213 211 204 207 203 201 202 209 233 6 160 193 237 234 237 235 233 195 213 217 205 181 153 123 111 128
231 234 198 215 207 212 217 226 208 208 221 221 219 215 210 204 178 179 195 193 192 200 203 207 225 228 225 243 237 209 187 199 198 189 181 175 157 152
218 207 209 207 199 212 209 210 205 214 221 224 219 213 204 191 201 201 202 207 214 191 201 203 206 198 205 220 222 210 203 190 198 200 190 185 179 151
197 196 198 201 207 209 213 213 205 210 211 216 201 196 198 198 199 201 204 204 219 216 193 194 183 195 230 247 218 225 204 211 201 195 201 202 205 190
195 205 212 213 216 211 210 215 209 205 201 207 201 202 201 208 214 210 211 213 224 222 214 197 192 194 211 226 227 228 216 220 212 209 213 218 209 210
211 221 221 215 212 208 208 210 211 214 209 209 203 207 206 209 206 219 218 220 233 234 220 218 208 210 214 225 199 212 218 212 207 215 216 225 241 206
210 218 217 216 210 205 206 211 214 212 216 220 217 215 214 219 217 223 222 223 217 216 229 225 221 221 227 235 226 204 214 227 210 215 220 231 226 229
208 215 210 215 209 214 220 223 223 218 216 214 218 220 216 218 220 221 225 229 230 231 225 223 221 222 231 237 238 203 199 220 233 232 221 222 211 214
199 215 222 222 220 220 221 225 226 226 220 221 225 225 224 221 223 221 230 228 213 232 231 237 205 205 221 230 241 240 226 201 224 227 229 222 247 232
208 227 220 217 224 230 230 232 235 233 223 223 224 226 227 226 225 227 229 228 235 223 230 230 227 214 230 232 244 247 231 202 211 219 227 228 235 248